FENGYUN 1C DEB, 30129

Orbit data source: Space-Track

FENGYUN 1C DEB, 30129 is space debris in SSO originally from a launch on Mon, 10 May 1999 UTC launched from the Taiyaun Space Center, China (TSC). Fengyun 1C debris stems from the Chinese weather satellite Fengyun-1C, which was intentionally destroyed by a Chinese anti-satellite missile in 2007. This event dramatically increased the amount of space debris, with thousands of trackable fragments posing hazards to satellites and human spaceflight. The Fengyun 1C debris cloud has become a focal point in discussions about space sustainability and the need for international regulations to prevent the creation of new debris.

Loading next visibility...
Identifier
30129, 1999-025SJ
Orbit
SSO
Country
Flag of CNCN / PRC
Related business
Manufacturer
Unknown
Mission
Spacecraft
Bus & Motor
Unknown
Mass
Unknown
Launch date (UTC)
1999-05-10 (27 years ago)
Launch vehicle
Unknown
Launch site
Taiyaun Space Center, China (TSC)
Object type
Payload
Rocket body
Debris
Shape & HBR
Unknown shape, 0.1 m
Radar Cross Section
Medium (>0.1 m² and <1 m²)

Expand to show TLE details & history
Last TLE update: 8 hours ago

TLE from 8 hours ago
0 FENGYUN 1C DEB
1 30129U 99025SJ  26254.25816434  .00000351  00000-0  21848-3 0  9997
2 30129  98.0358 169.1143 0185652  35.3086 115.2279 14.01958803  2959
Epoch: 2026-09-11T06:11Z
TLE epoch observation values (Epoch: 2026-09-11T06:11:45.398Z)
Latitude
27.30385°
Longitude
-89.95136°
Altitude
949.883 km
Speed
7.349 km/s
True Right ascension
23h 33m 05s
True Declination
27° 10' 03"
Sunlit
Object was in full shadow at epoch
Visualization orbit readout
Latitude
Unknown
Longitude
Unknown
Altitude
Unknown
Speed
Unknown
Apparent Right ascension
Unknown
Apparent Declination
Unknown
Sunlit
N/A
Visualization observer readout
Local Sidereal Time
06:15:43
Azimuth
Unknown
Elevation
Unknown
Doppler factor
Unknown
Orbital elements
Apogee altitude
1,018.997 km
Perigee altitude
749.344 km
Semi-major axis
7,262.308 km
Eccentricity
0.01857
Inclination
98.0358°
RAAN
169.1143°
Arg. of periapsis
35.3086°
True anomaly
117.13319°
Mean anomaly
115.2279°
Eccentric anomaly
116.18246°
Mean motion
3.50696 °/min
Orbital period
102.65 mins
BSTAR
0.00021848
Loading maneuver chart data...
Computing Atmospheric mass density...
Loading historical data...
Loading historical data...
Loading historical data...
Loading historical data...
Loading historical data...
Loading historical data...
Loading historical data...

Documentation

Showing up to 5 results
|